Weather History for Canadian, TX

Change the Weather History Date:

Sunday, February 24, 2013

  Actual Average (KPPA) Record (KPPA)
Temperature  
Mean Temperature 44 °F -  
Max Temperature 55 °F 54 °F 75 °F (1972)
Min Temperature 32 °F 27 °F 1 °F (1965)
Degree Days  
Heating Degree Days 22    
Moisture  
Dew Point 32 °F    
Average Humidity 82    
Maximum Humidity 93    
Minimum Humidity 47    
Precipitation  
Precipitation 0.00 in - - ()
Sea Level Pressure  
Sea Level Pressure 29.74 in    
Wind  
Wind Speed 8 mph (NW)    
Max Wind Speed 21 mph    
Max Gust Speed 26 mph    
Visibility 9 miles    
Events Snow    
Averages and records for this station are not official NWS values.
T = Trace of Precipitation, MM = Missing Value Source: NWS Daily Summary

Daily Weather History Graph

Daily Weather History Graph

Search for Another Location

Airport:

Trip Planner

Search our weather history database for the weather conditions in past years. The results will help you decide how hot, cold, wet, or windy it might be!

Date:

Astronomy

Feb. 24, 2013 Rise Set
Actual Time 7:17 AM CST 6:32 PM CST
Civil Twilight 6:51 AM CST 6:58 PM CST
Nautical Twilight 6:22 AM CST 7:27 PM CST
Astronomical Twilight 5:52 AM CST 7:57 PM CST
Moon 5:45 PM CST (2/24) 6:15 AM CST (2/24)
Length of Visible Light 12h 06m
Length of Day
11h 14m
Waxing Gibbous, 99% of the Moon is Illuminated
Feb 24
Waxing Gibbous
Feb 25
Full
Mar 4
Last Quarter
Mar 11
New
Mar 19
First Quarter

Hourly Weather History & Observations

Time (CST) Temp. Windchill Dew Point Humidity Pressure Visibility Wind Dir Wind Speed Gust Speed Precip Events Conditions
12:15 AM 33.8 °F 30.8 °F 32.0 °F 93% 29.75 in 10.0 mi SE 3.5 mph - N/A   Clear
12:35 AM 35.6 °F - 32.0 °F 87% 29.75 in 10.0 mi Calm Calm - N/A   Clear
12:55 AM 35.6 °F - 32.0 °F 87% 29.75 in 10.0 mi Calm Calm - N/A   Clear
1:15 AM 35.6 °F - 30.2 °F 81% 29.76 in 10.0 mi Calm Calm - N/A   Clear
1:35 AM 35.6 °F - 30.2 °F 81% 29.76 in 10.0 mi Calm Calm - N/A   Clear
1:55 AM 35.6 °F - 30.2 °F 81% 29.75 in 10.0 mi Calm Calm - N/A   Clear
2:15 AM 35.6 °F 31.7 °F 30.2 °F 81% 29.75 in 10.0 mi SE 4.6 mph - N/A   Clear
2:35 AM 35.6 °F 29.9 °F 30.2 °F 81% 29.74 in 10.0 mi SSE 6.9 mph - N/A   Clear
2:55 AM 33.8 °F 27.7 °F 30.2 °F 87% 29.74 in 10.0 mi SSE 6.9 mph - N/A   Clear
3:15 AM 33.8 °F 28.6 °F 30.2 °F 87% 29.73 in 10.0 mi SE 5.8 mph - N/A   Clear
3:35 AM 33.8 °F 28.6 °F 30.2 °F 87% 29.72 in 10.0 mi SSE 5.8 mph - N/A   Clear
3:55 AM 33.8 °F 25.8 °F 30.2 °F 87% 29.70 in 10.0 mi SSE 10.4 mph - N/A   Clear
4:15 AM 33.8 °F 25.3 °F 30.2 °F 87% 29.70 in 10.0 mi SSE 11.5 mph 17.3 mph N/A   Clear
4:35 AM 33.8 °F 25.3 °F 30.2 °F 87% 29.69 in 10.0 mi SSE 11.5 mph 19.6 mph N/A   Clear
4:55 AM 33.8 °F 26.4 °F 30.2 °F 87% 29.68 in 10.0 mi SSE 9.2 mph - N/A   Clear
5:15 AM 33.8 °F 27.0 °F 30.2 °F 87% 29.68 in 10.0 mi South 8.1 mph - N/A   Clear
5:35 AM 32.0 °F - 30.2 °F 93% 29.70 in 10.0 mi Calm Calm - N/A   Clear
5:55 AM 32.0 °F 26.4 °F 30.2 °F 93% 29.69 in 10.0 mi SE 5.8 mph - N/A   Clear
6:15 AM 32.0 °F 25.6 °F 30.2 °F 93% 29.71 in 10.0 mi SSE 6.9 mph - N/A   Clear
6:35 AM 32.0 °F 27.5 °F 30.2 °F 93% 29.71 in 10.0 mi SSE 4.6 mph - N/A   Clear
6:55 AM 32.0 °F 26.4 °F 30.2 °F 93% 29.71 in 10.0 mi South 5.8 mph - N/A   Clear
7:15 AM 32.0 °F - 30.2 °F 93% 29.72 in 10.0 mi Calm Calm - N/A   Clear
7:35 AM 32.0 °F 27.5 °F 30.2 °F 93% 29.72 in 10.0 mi South 4.6 mph - N/A   Clear
7:55 AM 32.0 °F 27.5 °F 30.2 °F 93% 29.72 in 10.0 mi South 4.6 mph - N/A   Clear
8:15 AM 33.8 °F 28.6 °F 32.0 °F 93% 29.72 in 10.0 mi South 5.8 mph - N/A   Clear
8:35 AM 33.8 °F 28.6 °F 32.0 °F 93% 29.72 in 10.0 mi SSW 5.8 mph - N/A   Clear
8:55 AM 35.6 °F 29.2 °F 32.0 °F 87% 29.72 in 10.0 mi SSW 8.1 mph - N/A   Clear
9:15 AM 35.6 °F 27.1 °F 32.0 °F 87% 29.72 in 10.0 mi South 12.7 mph - N/A   Clear
9:35 AM 37.4 °F 29.8 °F 32.0 °F 81% 29.72 in 10.0 mi SSW 11.5 mph - N/A   Clear
9:55 AM 39.2 °F 32.0 °F 32.0 °F 75% 29.71 in 10.0 mi SSW 11.5 mph - N/A   Clear
10:15 AM 41.0 °F 34.3 °F 32.0 °F 70% 29.70 in 10.0 mi South 11.5 mph - N/A   Clear
10:35 AM 41.0 °F 33.9 °F 32.0 °F 70% 29.70 in 10.0 mi SSW 12.7 mph - N/A   Clear
10:55 AM 42.8 °F 37.0 °F 33.8 °F 70% 29.70 in 10.0 mi South 10.4 mph - N/A   Clear
11:15 AM 44.6 °F 41.4 °F 33.8 °F 66% 29.70 in 10.0 mi SSW 5.8 mph - N/A   Clear
11:35 AM 46.4 °F 44.3 °F 33.8 °F 62% 29.70 in 10.0 mi South 4.6 mph - N/A   Clear
11:55 AM 48.2 °F - 35.6 °F 62% 29.70 in 10.0 mi South 8.1 mph - N/A   Clear
12:15 PM 50.0 °F - 35.6 °F 58% 29.69 in 10.0 mi SSW 8.1 mph - N/A   Clear
12:35 PM 51.8 °F - 35.6 °F 54% 29.69 in 10.0 mi SSW 6.9 mph - N/A   Clear
12:55 PM 53.6 °F - 35.6 °F 51% 29.68 in 10.0 mi SW 8.1 mph - N/A   Clear
1:15 PM 53.6 °F - 35.6 °F 51% 29.67 in 10.0 mi Calm Calm - N/A   Clear
1:35 PM 55.4 °F - 35.6 °F 47% 29.67 in 10.0 mi NNW 6.9 mph - N/A   Clear
1:55 PM 50.0 °F - 37.4 °F 62% 29.67 in 10.0 mi North 17.3 mph 20.7 mph N/A   Clear
2:15 PM 48.2 °F - 37.4 °F 66% 29.67 in 10.0 mi North 16.1 mph - N/A   Clear
2:35 PM 46.4 °F 40.7 °F 37.4 °F 71% 29.66 in 10.0 mi North 12.7 mph - N/A   Clear
2:55 PM 44.6 °F 37.8 °F 35.6 °F 71% 29.68 in 10.0 mi NNW 15.0 mph - N/A   Clear
3:15 PM 44.6 °F 38.4 °F 35.6 °F 71% 29.67 in 10.0 mi North 12.7 mph - N/A   Clear
3:35 PM 44.6 °F 38.1 °F 35.6 °F 71% 29.68 in 10.0 mi NNW 13.8 mph 19.6 mph N/A   Clear
3:55 PM 44.6 °F 37.2 °F 35.6 °F 71% 29.70 in 10.0 mi NNW 17.3 mph 21.9 mph N/A   Scattered Clouds
4:15 PM 42.8 °F 35.1 °F 33.8 °F 70% 29.70 in 10.0 mi NNW 16.1 mph 20.7 mph N/A   Scattered Clouds
4:35 PM 41.0 °F 32.8 °F 33.8 °F 76% 29.71 in 10.0 mi NNW 16.1 mph 19.6 mph N/A   Scattered Clouds
4:55 PM 39.2 °F 30.5 °F 32.0 °F 75% 29.73 in 10.0 mi North 16.1 mph 20.7 mph N/A   Mostly Cloudy
5:15 PM 35.6 °F 26.6 °F 32.0 °F 87% 29.72 in 10.0 mi North 13.8 mph - N/A   Overcast
5:35 PM 35.6 °F 25.2 °F 32.0 °F 87% 29.73 in 10.0 mi NNW 18.4 mph 24.2 mph N/A   Mostly Cloudy
5:55 PM 33.8 °F 23.2 °F 32.0 °F 93% 29.76 in 10.0 mi NNW 17.3 mph 21.9 mph N/A   Overcast
6:15 PM 33.8 °F 23.5 °F 32.0 °F 93% 29.79 in 7.0 mi NNW 16.1 mph - N/A   Overcast
6:35 PM 33.8 °F 22.5 °F 32.0 °F 93% 29.79 in 10.0 mi North 19.6 mph 25.3 mph N/A   Overcast
6:55 PM 33.8 °F 23.9 °F 32.0 °F 93% 29.80 in 7.0 mi North 15.0 mph 21.9 mph N/A   Overcast
7:15 PM 33.8 °F 24.3 °F 30.2 °F 87% 29.80 in 7.0 mi North 13.8 mph 23.0 mph N/A   Overcast
7:35 PM 33.8 °F 24.3 °F 30.2 °F 87% 29.82 in 7.0 mi North 13.8 mph 21.9 mph N/A   Overcast
7:55 PM 32.0 °F 21.6 °F 30.2 °F 93% 29.82 in 5.0 mi North 15.0 mph 25.3 mph N/A   Overcast
8:15 PM 32.0 °F 21.6 °F 30.2 °F 93% 29.83 in 5.0 mi North 15.0 mph 23.0 mph N/A   Overcast
8:35 PM 32.0 °F 22.1 °F 30.2 °F 93% 29.85 in 5.0 mi North 13.8 mph - N/A   Overcast
8:55 PM 32.0 °F 19.8 °F 30.2 °F 93% 29.83 in 7.0 mi North 20.7 mph 26.5 mph N/A   Overcast
9:15 PM 32.0 °F 20.1 °F 30.2 °F 93% 29.82 in 5.0 mi North 19.6 mph 26.5 mph N/A   Overcast
9:35 PM 32.0 °F 21.6 °F 28.4 °F 87% 29.81 in 7.0 mi North 15.0 mph 24.2 mph N/A   Overcast
9:55 PM 32.0 °F 21.6 °F 28.4 °F 87% 29.83 in 7.0 mi North 15.0 mph 21.9 mph N/A   Overcast
10:15 PM 32.0 °F 22.1 °F 28.4 °F 87% 29.84 in 7.0 mi NNE 13.8 mph 20.7 mph N/A   Overcast
10:35 PM 32.0 °F 20.5 °F 28.4 °F 87% 29.83 in 7.0 mi North 18.4 mph 21.9 mph N/A   Overcast
10:55 PM 32.0 °F 23.6 °F 30.2 °F 93% 29.83 in 5.0 mi NNE 10.4 mph 18.4 mph N/A Snow Light Snow
11:15 PM 32.0 °F 21.2 °F 30.2 °F 93% 29.81 in 2.0 mi North 16.1 mph 25.3 mph N/A Snow Light Snow
11:35 PM 32.0 °F 22.1 °F 30.2 °F 93% 29.82 in 3.0 mi North 13.8 mph 19.6 mph N/A Snow Light Snow
11:55 PM 32.0 °F 23.0 °F 30.2 °F 93% 29.80 in 2.0 mi North 11.5 mph 18.4 mph N/A Snow Light Snow